FW1382 Weather Reports


Display with metric or nautical units.
time (UTC)temp
F
wind
direction
speed
MPH
gust
MPH
rain 1hr
in
rain 24hr
in
rain mn
in
humidity
%
barometer
mb
20260505224552 91 215 5.0 10.0 0.00 0.00 0.00 51 1002.9
20260505223117 91 217 5.0 10.0 0.00 0.00 0.00 50 1002.8
20260505221502 91 237 7.0 12.0 0.00 0.00 0.00 51 1002.9
20260505220008 91 222 7.0 11.0 0.00 0.00 0.00 51 1002.9
20260505214516 91 222 5.0 10.0 0.00 0.00 0.00 52 1003.0
20260505213031 90 219 6.0 9.0 0.00 0.00 0.00 51 1002.9
20260505211541 90 211 9.0 12.0 0.00 0.00 0.00 52 1002.9
20260505210045 90 201 7.0 14.0 0.00 0.00 0.00 53 1003.3
20260505204609 90 190 7.0 12.0 0.00 0.00 0.00 54 1003.6
20260505203132 90 213 7.0 13.0 0.00 0.00 0.00 56 1003.5
20260505201508 89 211 8.0 13.0 0.00 0.00 0.00 57 1004.0
20260505200027 89 244 8.0 17.0 0.00 0.00 0.00 57 1004.2
20260505194550 88 236 9.0 17.0 0.00 0.00 0.00 57 1004.3
20260505193054 88 209 10.0 18.0 0.00 0.00 0.00 59 1004.3
20260505191605 88 204 10.0 13.0 0.00 0.00 0.00 62 1004.5
20260505190011 87 241 8.0 18.0 0.00 0.00 0.00 63 1004.5
20260505184534 87 203 10.0 18.0 0.00 0.00 0.00 66 1004.7
20260505183048 86 221 8.0 19.0 0.00 0.00 0.00 64 1004.9
20260505181600 85 184 11.0 18.0 0.00 0.00 0.00 65 1005.0
20260505180114 84 221 10.0 15.0 0.00 0.00 0.00 67 1005.1
20260505174506 84 198 10.0 19.0 0.00 0.00 0.00 69 1005.5
20260505173025 83 235 15.0 21.0 0.00 0.00 0.00 68 1005.4
20260505170011 81 169 11.0 16.0 0.00 0.00 0.00 72 1005.4
20260505164535 80 209 11.0 16.0 0.00 0.00 0.00 74 1005.8
20260505163051 79 233 9.0 18.0 0.00 0.00 0.00 74 1005.7
20260505161559 79 185 11.0 21.0 0.00 0.00 0.00 75 1005.5
20260505160118 78 211 14.0 20.0 0.00 0.00 0.00 76 1005.7
20260505153052 77 240 10.0 20.0 0.00 0.00 0.00 77 1005.8
20260505151505 76 240 12.0 23.0 0.00 0.00 0.00 79 1005.9
20260505124512 70 187 6.0 13.0 0.00 0.00 0.00 88 1004.9
20260505123021 69 223 7.0 12.0 0.00 0.00 0.00 89 1004.8
20260505121546 69 202 7.0 16.0 0.00 0.00 0.00 89 1004.5
20260505120117 69 192 10.0 15.0 0.00 0.00 0.00 89 1004.3
20260505114502 69 187 9.0 21.0 0.00 0.00 0.00 89 1004.0
20260505113009 69 206 10.0 17.0 0.00 0.00 0.00 88 1003.9
20260505111532 69 229 11.0 16.0 0.00 0.00 0.00 88 1004.2
20260505101536 70 213 14.0 20.0 0.00 0.00 0.00 88 1003.8
20260505100025 70 211 11.0 23.0 0.00 0.00 0.00 87 1003.9
20260505094526 70 225 11.0 23.0 0.00 0.00 0.00 87 1004.0
20260505093032 70 198 13.0 24.0 0.00 0.00 0.00 87 1004.2
20260505091521 70 216 11.0 19.0 0.00 0.00 0.00 87 1004.2
20260505090032 70 195 12.0 25.0 0.00 0.00 0.00 87 1004.1
20260505084548 70 212 13.0 19.0 0.00 0.00 0.00 87 1004.4
20260505083108 70 211 12.0 21.0 0.00 0.00 0.00 87 1004.5
20260505081603 70 202 11.0 18.0 0.00 0.00 0.00 86 1004.4
20260505080021 70 205 11.0 21.0 0.00 0.00 0.00 86 1004.5
20260505074518 70 198 10.0 20.0 0.00 0.00 0.00 85 1004.8
20260505073023 70 178 11.0 17.0 0.00 0.00 0.00 84 1005.4
20260505071548 71 207 11.0 18.0 0.00 0.00 0.00 83 1005.5
20260505070105 71 198 10.0 17.0 0.00 0.00 0.00 82 1005.7
20260505064513 71 215 11.0 19.0 0.00 0.00 0.00 81 1005.9
20260505063037 72 194 12.0 20.0 0.00 0.00 0.00 80 1006.0
20260505061616 73 198 14.0 24.0 0.00 0.00 0.00 79 1006.0
20260505060004 73 196 13.0 19.0 0.00 0.00 0.00 78 1005.9
20260505054519 73 217 13.0 24.0 0.00 0.00 0.00 77 1006.2
20260505053029 73 171 11.0 22.0 0.00 0.00 0.00 76 1006.2
20260505051556 74 188 12.0 20.0 0.00 0.00 0.00 75 1006.1
20260505041519 75 185 13.0 23.0 0.00 0.00 0.00 73 1006.3
20260505040028 75 209 12.0 22.0 0.00 0.00 0.00 73 1006.4
20260505034535 75 172 11.0 20.0 0.00 0.00 0.00 73 1006.3
20260505033030 75 175 12.0 18.0 0.00 0.00 0.00 73 1006.3
20260505031540 75 195 10.0 17.0 0.00 0.00 0.00 74 1006.1
20260505030045 75 175 10.0 14.0 0.00 0.00 0.00 74 1006.4
20260505024550 75 196 10.0 14.0 0.00 0.00 0.00 73 1006.2
20260505023058 76 199 8.0 15.0 0.00 0.00 0.00 73 1006.4
20260505021606 76 180 10.0 15.0 0.00 0.00 0.00 72 1006.1
20260505020105 77 178 10.0 21.0 0.00 0.00 0.00 71 1005.7
20260505014505 77 163 12.0 19.0 0.00 0.00 0.00 69 1006.0
20260505013116 77 161 8.0 13.0 0.00 0.00 0.00 69 1006.1
20260505011619 78 169 8.0 14.0 0.00 0.00 0.00 68 1005.5
20260505010009 78 190 8.0 12.0 0.00 0.00 0.00 68 1005.5
20260505004527 78 177 9.0 14.0 0.00 0.00 0.00 68 1005.5
20260505003034 79 180 7.0 12.0 0.00 0.00 0.00 68 1005.7
20260505001537 79 173 9.0 12.0 0.00 0.00 0.00 67 1005.9
20260505000048 80 175 10.0 15.0 0.00 0.00 0.00 65 1006.1
20260504234545 81 183 14.0 19.0 0.00 0.00 0.00 63 1006.1
20260504233104 81 180 12.0 19.0 0.00 0.00 0.00 62 1006.5
20260504231607 81 211 12.0 20.0 0.00 0.00 0.00 63 1006.6